ASA291 KSAN-KSFO

Flight info

Callsign ASA291
Flight time N/A
Altitude 40000
Route PADRZ2 IKAYE RIZIN SPLNT STOKD SERFR SERFR4
Aircraft B738/M-SDGIRW/LB1

Departure

Time N/A
Airport San Diego International Airport (KSAN)

Arrival

Time 2026-05-03 23:06
Airport San Francisco International Airport (KSFO)
Time Latitude Longitude Altitude Speed Heading
2026-05-03 22:43 36.20635 -121.20372 25550 ft 370 kts 319°
2026-05-03 22:44 36.22734 -121.22196 25152 ft 368 kts 320°
2026-05-03 22:44 36.24814 -121.24009 24953 ft 360 kts 319°
2026-05-03 22:44 36.26674 -121.26018 24705 ft 350 kts 308°
2026-05-03 22:44 36.28167 -121.28371 24450 ft 348 kts 298°
2026-05-03 22:45 36.29453 -121.30948 24269 ft 354 kts 298°
2026-05-03 22:45 36.30779 -121.33553 24042 ft 359 kts 298°
2026-05-03 22:45 36.32123 -121.36152 23802 ft 356 kts 299°
2026-05-03 22:45 36.33440 -121.38694 23572 ft 354 kts 299°
2026-05-03 22:46 36.34770 -121.41258 23329 ft 353 kts 299°
2026-05-03 22:46 36.36098 -121.43820 23020 ft 352 kts 299°
2026-05-03 22:46 36.37421 -121.46378 22755 ft 352 kts 299°
2026-05-03 22:46 36.38744 -121.48940 22488 ft 352 kts 299°
2026-05-03 22:47 36.40072 -121.51505 22219 ft 352 kts 299°
2026-05-03 22:47 36.41386 -121.54057 21958 ft 350 kts 299°
2026-05-03 22:47 36.42694 -121.56598 21703 ft 348 kts 299°
2026-05-03 22:47 36.44001 -121.59131 21446 ft 348 kts 300°
2026-05-03 22:48 36.45306 -121.61664 21184 ft 348 kts 300°
2026-05-03 22:48 36.46612 -121.64196 20940 ft 348 kts 300°
2026-05-03 22:48 36.47916 -121.66732 20688 ft 348 kts 300°
2026-05-03 22:48 36.49243 -121.69249 20438 ft 349 kts 305°
2026-05-03 22:49 36.51030 -121.71244 20109 ft 353 kts 326°
2026-05-03 22:49 36.53132 -121.72873 19777 ft 350 kts 326°
2026-05-03 22:49 36.55171 -121.74441 19430 ft 349 kts 326°
2026-05-03 22:49 36.57223 -121.76037 19061 ft 347 kts 326°
2026-05-03 22:50 36.59269 -121.77634 18706 ft 346 kts 327°
2026-05-03 22:50 36.61317 -121.79239 18324 ft 347 kts 327°
2026-05-03 22:50 36.63356 -121.80844 17936 ft 346 kts 327°
2026-05-03 22:50 36.65383 -121.82450 17546 ft 344 kts 326°
2026-05-03 22:51 36.67393 -121.84049 17171 ft 341 kts 326°
2026-05-03 22:51 36.69389 -121.85636 16816 ft 339 kts 326°
2026-05-03 22:51 36.71375 -121.87212 16461 ft 337 kts 326°
2026-05-03 22:51 36.73349 -121.88774 16133 ft 336 kts 327°
2026-05-03 22:52 36.75481 -121.89926 15766 ft 335 kts 346°
2026-05-03 22:52 36.77753 -121.90543 15438 ft 334 kts 348°
2026-05-03 22:52 36.79258 -121.90930 15203 ft 332 kts 348°
2026-05-03 22:52 36.81515 -121.91519 14860 ft 330 kts 348°
2026-05-03 22:53 36.83765 -121.92123 14510 ft 330 kts 347°
2026-05-03 22:53 36.86007 -121.92736 14161 ft 329 kts 347°
2026-05-03 22:53 36.88965 -121.93557 13694 ft 328 kts 347°
2026-05-03 22:53 36.90474 -121.93977 13441 ft 328 kts 347°
2026-05-03 22:54 36.92673 -121.94592 13080 ft 326 kts 347°
2026-05-03 22:54 36.94890 -121.95216 12716 ft 326 kts 347°
2026-05-03 22:54 36.97084 -121.95949 12362 ft 325 kts 343°
2026-05-03 22:54 36.99240 -121.96789 12017 ft 324 kts 342°
2026-05-03 22:55 37.01380 -121.97653 11690 ft 322 kts 342°
2026-05-03 22:55 37.03513 -121.98510 11342 ft 321 kts 342°
2026-05-03 22:55 37.05636 -121.99357 10991 ft 320 kts 342°
2026-05-03 22:55 37.07754 -122.00195 10658 ft 319 kts 342°
2026-05-03 22:56 37.09876 -122.01025 10332 ft 318 kts 343°
2026-05-03 22:56 37.11970 -122.01847 10159 ft 312 kts 343°
2026-05-03 22:56 37.14014 -122.02649 9987 ft 305 kts 343°
2026-05-03 22:56 37.16030 -122.03443 9655 ft 303 kts 343°
2026-05-03 22:57 37.16922 -122.03793 9545 ft 301 kts 343°
2026-05-03 22:57 37.18177 -122.04282 9352 ft 300 kts 343°
2026-05-03 22:57 37.20143 -122.05049 9045 ft 299 kts 343°
2026-05-03 22:58 37.22128 -122.05830 8736 ft 298 kts 344°
2026-05-03 22:58 37.24103 -122.06612 8432 ft 296 kts 343°
2026-05-03 22:58 37.26062 -122.07377 8177 ft 294 kts 344°
2026-05-03 22:58 37.28018 -122.08105 7842 ft 293 kts 343°
2026-05-03 22:59 37.29974 -122.08882 7449 ft 295 kts 342°
2026-05-03 22:59 37.31936 -122.09671 7075 ft 297 kts 342°
2026-05-03 22:59 37.33914 -122.10460 6688 ft 299 kts 343°
2026-05-03 22:59 37.35899 -122.11247 6312 ft 300 kts 343°
2026-05-03 23:00 37.37894 -122.12031 5899 ft 300 kts 344°
2026-05-03 23:00 37.39899 -122.12728 5547 ft 296 kts 345°
2026-05-03 23:00 37.41869 -122.13390 5186 ft 289 kts 345°
2026-05-03 23:00 37.43785 -122.14040 4869 ft 282 kts 344°
2026-05-03 23:01 37.45657 -122.14674 4503 ft 275 kts 344°
2026-05-03 23:01 37.47460 -122.15266 4168 ft 267 kts 343°
2026-05-03 23:01 37.49238 -122.15834 3859 ft 260 kts 343°
2026-05-03 23:01 37.50967 -122.16409 3536 ft 254 kts 342°
2026-05-03 23:02 37.52643 -122.16974 3326 ft 241 kts 341°
2026-05-03 23:02 37.54000 -122.17937 3158 ft 213 kts 303°
2026-05-03 23:02 37.54634 -122.19461 3061 ft 185 kts 289°
2026-05-03 23:02 37.55165 -122.20834 2905 ft 164 kts 290°
2026-05-03 23:03 37.55683 -122.22108 2479 ft 161 kts 291°
2026-05-03 23:03 37.56190 -122.23332 2187 ft 155 kts 291°
2026-05-03 23:03 37.56679 -122.24510 2030 ft 151 kts 292°
2026-05-03 23:03 37.57177 -122.25718 1810 ft 157 kts 291°
2026-05-03 23:04 37.57684 -122.26946 1586 ft 158 kts 293°
2026-05-03 23:04 37.58186 -122.28183 1366 ft 157 kts 293°
2026-05-03 23:04 37.58681 -122.29352 1146 ft 143 kts 292°
2026-05-03 23:04 37.59131 -122.30425 947 ft 136 kts 293°
2026-05-03 23:05 37.59569 -122.31452 817 ft 135 kts 291°
2026-05-03 23:05 37.60017 -122.32520 647 ft 140 kts 291°
2026-05-03 23:05 37.60490 -122.33608 459 ft 143 kts 290°
2026-05-03 23:05 37.60945 -122.34740 215 ft 147 kts 291°
2026-05-03 23:06 37.61423 -122.35871 65 ft 143 kts 292°
2026-05-03 23:06 37.61863 -122.36938 17 ft 127 kts 295°
2026-05-03 23:06 37.62209 -122.37752 19 ft 84 kts 298°
2026-05-03 23:06 37.62343 -122.38152 21 ft 31 kts 259°
2026-05-03 23:07 37.62217 -122.38288 20 ft 23 kts 196°
2026-05-03 23:07 37.62082 -122.38338 22 ft 13 kts 196°
2026-05-03 23:07 37.62007 -122.38300 23 ft 13 kts 120°
2026-05-03 23:07 37.61966 -122.38201 24 ft 13 kts 117°
2026-05-03 23:08 37.61909 -122.38069 23 ft 19 kts 121°
2026-05-03 23:08 37.61814 -122.37966 20 ft 18 kts 158°
2026-05-03 23:08 37.61694 -122.37954 16 ft 17 kts 192°
2026-05-03 23:08 37.61586 -122.38015 15 ft 17 kts 207°
2026-05-03 23:09 37.61481 -122.38085 15 ft 19 kts 208°
2026-05-03 23:09 37.61358 -122.38168 15 ft 21 kts 208°
2026-05-03 23:09 37.61231 -122.38252 16 ft 20 kts 207°
2026-05-03 23:09 37.61149 -122.38309 17 ft 4 kts 227°
2026-05-03 23:10 37.61160 -122.38314 18 ft 9 kts 51°
2026-05-03 23:10 37.61242 -122.38246 16 ft 16 kts 20°
2026-05-03 23:10 37.61289 -122.38294 15 ft 9 kts 272°
2026-05-03 23:10 37.61299 -122.38351 15 ft 2 kts 287°
2026-05-03 23:11 37.61303 -122.38367 15 ft 2 kts 287°
2026-05-03 23:11 37.61304 -122.38372 15 ft 0 kts 287°